H-2A R/B

Last updated on Thu Nov 21 2024 00:02:13 GMT+0000 (Coordinated Universal Time)

1 43682U 18084L 24325.29005790 .00019874 00000+0 87128-3 0 9999 2 43682 98.8554 78.9542 0039193 206.8310 153.0895 15.21345287333170
UTC large
Height (km)
Speed (km/s)
/
Latitude / Longitude
Inclination (degrees)
Orbital Period (minutes)
Azimuth
Elevation
Range (km)
Doppler Factor

Next 0 passes for location: London (51.5072 / 0.1276)

Sorry there are no passes over London.